{"data":{"norad_id":64835,"epoch":"2026-05-24T15:41:55.695840Z","epoch_age_seconds":95172,"freshness":"FRESH","line1":"1 64835U 25151V   26144.65411685  .00000010  00000+0  30347-4 0  9994","line2":"2 64835  51.8990 302.1950 0000723 130.8329 229.2696 14.79932190 46863","mean_motion":14.7993219,"eccentricity":7.23e-5,"inclination_deg":51.899,"raan_deg":302.195,"arg_perigee_deg":130.8329,"mean_anomaly_deg":229.2696,"bstar":3.0347e-5,"rev_number":4686,"period_min":97.301755427051,"perigee_km":629.03153122948,"apogee_km":630.0448410614,"semimajor_km":7007.6751861454,"source":"CELESTRAK","updated_at":"2026-05-25T13:38:04.827182Z"}}